Regional Weather Roundup
Issued by NWS

Home | Current Version | Previous Version | Graphics & Text | Print | Product List | Glossary Off
Versions: 1 2 3 4 5 6 7 8 9 10 11 12 13 14 15 16 17 18 19 20 21 22 23 24 25 26 27 28 29 30 31 32 33 34 35 36 37 38 39 40 41 42 43 44 45 46 47 48 49 50

273
ASUS43 KTOP 161908
RWRKS

WEATHER ROUNDUP FOR KANSAS
NATIONAL WEATHER SERVICE GOODLAND KS
100 PM CST MON JAN 16 2017

NOTE:  "FAIR" INDICATES FEW OR NO CLOUDS BELOW 12,000 FEET WITH NO
SIGNIFICANT WEATHER AND/OR OBSTRUCTIONS TO VISIBILITY.

KSZ001>006-013>018-027>032-041>047-162000-
NORTHWEST KANSAS

CITY           SKY/WX    TMP DP  RH WIND       PRES   REMARKS
GOODLAND       CLOUDY    33  32  96 N14       29.93S FOG     WCI  23
HAYS           CLOUDY    33  31  92 N12       29.88F WCI  24
HILL CITY      LGT SNOW  33  33 100 N10       29.91S FOG     WCI  25
RUSSELL        CLOUDY    32  32 100 N9        29.86S FOG
$$

KSZ061>065-074>080-084>089-162000-
SOUTHWEST KANSAS

CITY           SKY/WX    TMP DP  RH WIND       PRES   REMARKS
DODGE CITY     MIX PCPN  32  31  96 NW10      29.89F FOG     WCI  24
ELKHART          N/A     34  24  67 NW13        N/A  WCI  25
GARDEN CITY    CLOUDY    33  31  92 NW14      29.90F WCI  23
GREAT BEND     MIX PCPN  32  31  96 NW10      29.87F FOG     WCI  24
LIBERAL        CLOUDY    36  30  80 MISG      29.93F
PRATT            N/A    N/A N/A N/A MISG        N/A
$$

KSZ066>073-081>083-090>101-162000-
SOUTHEAST KANSAS

CITY           SKY/WX    TMP DP  RH WIND       PRES   REMARKS
CHANUTE        CLOUDY    47  43  86 S16       29.87F
HUTCHINSON     CLOUDY    36  35  96 W9        29.84F
MEDICINE LODGE   N/A     36  34  92 NW12      29.87F WCI  28
NEWTON         LGT RAIN  37  36  96 SW16      29.83F WCI  28
PARSONS        CLOUDY    48  45  89 SW14      29.88F
WICHITA INTL   LGT RAIN  39  37  92 SW15      29.85F WCI  31
WICHITA JABRA  LGT RAIN  38  37  97 SW12      29.85S WCI  30
WICHITA MCCONL CLOUDY    38  37  95 SW12      29.85S WCI  31
WINFIELD       CLOUDY    39  36  89 SW14G24   29.89S WCI  31
$$

KSZ007>012-019>026-033>040-048>060-102>105-162000-
NORTHEAST KANSAS

CITY           SKY/WX    TMP DP  RH WIND       PRES   REMARKS
CONCORDIA      CLOUDY    32  32 100 N7        29.84F FOG
EMPORIA        LGT RAIN  41  40  96 SW13      29.83F
LAWRENCE       CLOUDY    45  45 100 CALM      29.84F
MANHATTAN      LGT RAIN  38  38 100 NE3       29.82F FOG
MARYSVILLE     CLOUDY    32  32 100 N3        29.83F FOG
OLATHE IND     CLOUDY    52  49  89 S12       29.84F
OLATHE EXE     CLOUDY    52  51  97 SW13      29.84F
SALINA         CLOUDY    36  34  92 NW7       29.84F FOG
TOPEKA BILLARD CLOUDY    46  43  89 CALM      29.83F
TOPEKA FORBES  CLOUDY    49  44  83 SW14G23   29.82S
$$




USA.gov is the U.S. government's official web portal to all federal, state and local government web resources and services.